Date String (YYYY-MM-DD hh:mm:ss) UTC,Instrument flags,Ambient pressure (hPa),Sample flow (lpm),Bypass flow (lpm),Sample temperature (°C),Ambient temperature (°C),ASC tube jacket temperature (°C),LED temperature (°C),Box temperature (°C),Sample RH (%),Span deviation,Mass concentration (μg/m³),Mass concentration (μg/m³),Mass concentration (μg/m³)
DateTimeUTC,F1_M11,P_M11,Q1_M11,Q2_M11,T1_M11,T2_M11,T3_M11,T4_M11,T5_M11,U1_M11,ZSPAN_M11,X0_M11,X2_M11,X1_M11
2022-09-24 20:00:00,,0829.6,5.00,0.00,29.8,28.3,00.0,38.4,31.7,13.1,0000.0,0007.71,0003.05,0002.32
2022-09-24 20:01:00,,0829.6,5.01,0.00,29.8,28.5,00.0,38.4,31.8,13.8,0000.0,0007.53,0003.09,0002.34
2022-09-24 20:02:00,,0829.6,4.99,0.00,29.8,28.6,00.0,38.5,31.8,13.6,0000.0,0007.59,0003.14,0002.36
2022-09-24 20:03:00,,0829.7,5.00,0.00,29.9,28.8,00.0,38.5,31.9,13.5,0000.0,0007.62,0003.13,0002.36
2022-09-24 20:04:00,,0829.7,5.00,0.00,29.9,28.8,00.0,38.5,31.9,12.8,0000.0,0007.81,0003.12,0002.37
2022-09-24 20:05:00,,0829.7,5.01,0.00,29.9,28.0,00.0,38.5,31.8,12.6,0000.0,0007.92,0003.13,0002.37
2022-09-24 20:06:00,,0829.7,5.00,0.00,29.9,26.7,00.0,38.5,31.6,13.2,0000.0,0007.98,0003.15,0002.37
2022-09-24 20:07:00,,0829.6,5.00,0.00,29.8,26.5,00.0,38.4,31.6,12.8,0000.0,0008.11,0003.14,0002.36
2022-09-24 20:08:00,,0829.6,5.00,0.00,29.8,26.7,00.0,38.4,31.5,12.8,0000.0,0008.22,0003.14,0002.35
2022-09-24 20:09:00,,0829.7,5.00,0.00,29.7,27.0,00.0,38.4,31.4,12.9,0000.0,0008.76,0003.15,0002.36
2022-09-24 20:10:00,,0829.7,4.99,0.00,29.7,27.4,00.0,38.4,31.5,13.2,0000.0,0008.92,0003.14,0002.37
2022-09-24 20:11:00,,0829.7,5.01,0.00,29.7,27.7,00.0,38.4,31.5,12.9,0000.0,0008.49,0003.10,0002.38
2022-09-24 20:12:00,,0829.7,5.01,0.00,29.7,28.0,00.0,38.4,31.6,12.9,0000.0,0008.44,0003.09,0002.38
2022-09-24 20:13:00,,0829.8,5.00,0.00,29.7,28.2,00.0,38.4,31.6,12.6,0000.0,0008.45,0003.12,0002.39
2022-09-24 20:14:00,,0829.8,4.99,0.00,29.8,28.4,00.0,38.4,31.7,12.7,0000.0,0008.40,0003.13,0002.40
2022-09-24 20:15:00,,0829.7,5.01,0.00,29.8,28.5,00.0,38.4,31.8,12.8,0000.0,0008.06,0003.10,0002.40
2022-09-24 20:16:00,,0829.6,5.00,0.00,29.8,28.7,00.0,38.4,31.8,12.8,0000.0,0007.98,0003.07,0002.39
2022-09-24 20:17:00,,0829.6,5.00,0.00,29.9,28.8,00.0,38.5,31.9,12.6,0000.0,0008.19,0003.07,0002.38
2022-09-24 20:18:00,,0829.6,5.00,0.00,29.9,28.9,00.0,38.5,31.9,12.6,0000.0,0008.26,0003.04,0002.39
2022-09-24 20:19:00,,0829.6,5.01,0.00,29.9,27.8,00.0,38.5,31.9,12.6,0000.0,0008.13,0003.06,0002.41
2022-09-24 20:20:00,,0829.5,5.00,0.00,29.9,26.6,00.0,38.4,31.7,12.8,0000.0,0007.63,0003.07,0002.42
2022-09-24 20:21:00,,0829.5,4.99,0.00,29.8,26.6,00.0,38.4,31.6,12.4,0000.0,0006.92,0003.08,0002.44
2022-09-24 20:22:00,,0829.6,5.00,0.00,29.8,26.8,00.0,38.4,31.5,12.2,0000.0,0006.89,0003.07,0002.45
2022-09-24 20:23:00,,0829.6,4.99,0.00,29.7,27.1,00.0,38.4,31.4,12.5,0000.0,0006.96,0003.07,0002.45
2022-09-24 20:24:00,,0829.6,4.99,0.00,29.7,27.4,00.0,38.4,31.5,12.7,0000.0,0006.95,0003.03,0002.44
2022-09-24 20:25:00,,0829.6,5.01,0.00,29.7,27.8,00.0,38.4,31.6,13.0,0000.0,0007.42,0002.99,0002.41
2022-09-24 20:26:00,,0829.5,4.99,0.00,29.7,28.0,00.0,38.4,31.6,12.6,0000.0,0007.85,0003.00,0002.40
2022-09-24 20:27:00,,0829.5,5.00,0.00,29.8,28.2,00.0,38.4,31.7,12.5,0000.0,0007.79,0003.02,0002.40
2022-09-24 20:28:00,,0829.5,5.00,0.00,29.8,28.4,00.0,38.4,31.7,12.6,0000.0,0007.55,0003.01,0002.41
2022-09-24 20:29:00,,0829.5,5.01,0.00,29.8,28.6,00.0,38.4,31.8,12.6,0000.0,0007.62,0003.08,0002.41
2022-09-24 20:30:00,,0829.5,4.99,0.00,29.9,28.8,00.0,38.5,31.9,12.5,0000.0,0006.86,0003.10,0002.40
2022-09-24 20:31:00,,0829.4,4.99,0.00,29.9,28.9,00.0,38.5,31.9,12.3,0000.0,0006.78,0003.08,0002.38
2022-09-24 20:32:00,,0829.5,4.99,0.00,30.0,28.9,00.0,38.5,32.0,12.6,0000.0,0006.46,0003.08,0002.35
2022-09-24 20:33:00,,0829.5,5.00,0.00,30.0,27.7,00.0,38.5,31.9,12.9,0000.0,0006.43,0003.06,0002.34
2022-09-24 20:34:00,,0829.5,5.00,0.00,29.9,26.7,00.0,38.5,31.7,12.2,0000.0,0006.37,0003.05,0002.35
2022-09-24 20:35:00,,0829.5,5.00,0.00,29.9,26.7,00.0,38.4,31.7,12.2,0000.0,0006.36,0003.04,0002.35
2022-09-24 20:36:00,,0829.5,5.00,0.00,29.8,26.9,00.0,38.4,31.5,12.5,0000.0,0005.99,0003.01,0002.34
2022-09-24 20:37:00,,0829.5,5.01,0.00,29.7,27.2,00.0,38.4,31.5,12.5,0000.0,0005.47,0002.99,0002.34
2022-09-24 20:38:00,,0829.5,4.98,0.00,29.7,27.6,00.0,38.4,31.6,12.1,0000.0,0005.68,0002.96,0002.34
2022-09-24 20:39:00,,0829.5,5.00,0.00,29.7,27.8,00.0,38.4,31.6,12.4,0000.0,0005.80,0002.93,0002.34
2022-09-24 20:40:00,,0829.5,4.99,0.00,29.8,28.1,00.0,38.4,31.6,12.2,0000.0,0005.91,0002.89,0002.35
2022-09-24 20:41:00,,0829.5,5.00,0.00,29.8,28.3,00.0,38.4,31.7,12.3,0000.0,0005.59,0002.80,0002.34
2022-09-24 20:42:00,,0829.5,5.00,0.00,29.8,28.5,00.0,38.5,31.7,12.3,0000.0,0005.39,0002.76,0002.33
2022-09-24 20:43:00,,0829.5,5.01,0.00,29.9,28.7,00.0,38.5,31.8,12.5,0000.0,0005.31,0002.75,0002.34
2022-09-24 20:44:00,,0829.5,4.99,0.00,29.9,28.8,00.0,38.5,31.9,12.5,0000.0,0005.46,0002.81,0002.34
2022-09-24 20:45:00,,0829.5,5.00,0.00,29.9,28.9,00.0,38.5,32.0,12.2,0000.0,0005.75,0002.92,0002.35
2022-09-24 20:46:00,,0829.5,5.00,0.00,30.0,28.1,00.0,38.5,31.9,12.5,0000.0,0005.74,0002.94,0002.35
2022-09-24 20:47:00,,0829.5,5.01,0.00,29.9,26.7,00.0,38.5,31.7,12.1,0000.0,0005.86,0003.01,0002.36
2022-09-24 20:48:00,,0829.5,5.00,0.00,29.9,26.4,00.0,38.5,31.6,11.8,0000.0,0005.88,0003.09,0002.38
2022-09-24 20:49:00,,0829.5,4.99,0.00,29.8,26.7,00.0,38.4,31.5,11.8,0000.0,0005.22,0003.10,0002.38
2022-09-24 20:50:00,,0829.5,5.00,0.00,29.7,27.0,00.0,38.4,31.4,12.0,0000.0,0005.03,0003.10,0002.37
2022-09-24 20:51:00,,0829.5,5.00,0.00,29.7,27.3,00.0,38.4,31.5,11.9,0000.0,0004.72,0003.10,0002.37
2022-09-24 20:52:00,,0829.5,5.01,0.00,29.7,27.7,00.0,38.4,31.6,12.1,0000.0,0004.73,0003.11,0002.37
2022-09-24 20:53:00,,0829.5,4.99,0.00,29.7,27.9,00.0,38.4,31.6,12.2,0000.0,0004.69,0003.09,0002.38
2022-09-24 20:54:00,,0829.5,5.01,0.00,29.8,28.2,00.0,38.4,31.7,11.8,0000.0,0004.75,0003.09,0002.37
2022-09-24 20:55:00,,0829.5,5.00,0.00,29.8,28.4,00.0,38.4,31.8,11.7,0000.0,0004.60,0003.02,0002.37
2022-09-24 20:56:00,,0829.5,4.99,0.00,29.8,28.6,00.0,38.5,31.8,12.3,0000.0,0004.33,0002.92,0002.36
2022-09-24 20:57:00,,0829.5,5.01,0.00,29.9,28.8,00.0,38.5,31.9,11.9,0000.0,0004.25,0002.90,0002.35
2022-09-24 20:58:00,,0829.5,5.00,0.00,29.9,28.8,00.0,38.5,31.9,11.9,0000.0,0004.35,0002.90,0002.35
2022-09-24 20:59:00,,0829.5,5.00,0.00,30.0,27.8,00.0,38.5,31.9,11.5,0000.0,0004.22,0002.86,0002.35
